Wind_Speed
31 31 31 30 30 28 27 27 29 28 25 22 20 22 23 23 22 19 18 19 18 18 18 19 18 17 18 19 20 20 21 21 22 22 23 23 23 23 23 21 21 21 20 20 19 18 18 17 17
34 34 33 33 32 31 29 32 34 32 28 25 24 25 26 25 22 19 19 20 19 18 18 19 18 18 19 19 20 20 22 22 22 23 24 24 24 24 24 23 22 22 21 21 20 20 19 19 19
36 36 36 35 33 29 30 36 38 36 32 30 29 29 31 28 23 22 20 20 19 19 19 19 18 19 20 21 21 21 22 22 23 23 23 24 24 24 24 24 23 23 23 22 22 21 20 20 19
38 38 38 36 30 27 31 36 37 36 33 32 32 33 34 31 26 25 23 22 21 21 20 20 20 21 22 22 23 23 23 24 24 24 24 24 25 25 25 25 24 24 24 23 22 21 21 20 20
40 40 39 35 28 27 30 34 35 33 31 29 31 34 35 33 29 27 26 25 24 23 23 22 22 22 23 23 23 23 23 24 25 25 25 25 25 25 26 26 25 25 25 24 23 21 20 20 20
43 42 40 33 27 27 29 32 34 32 30 27 27 31 33 32 30 28 27 27 27 26 25 24 23 23 23 24 24 23 23 23 23 23 24 24 25 25 25 25 25 25 25 24 23 21 20 20 20
44 42 39 33 30 29 27 31 34 33 30 27 28 30 31 31 29 28 28 28 28 27 26 25 24 25 24 24 24 24 23 23 22 22 22 23 23 24 23 22 23 24 24 23 22 21 20 20 20
44 43 41 35 32 29 28 31 33 33 30 28 29 30 30 30 29 28 28 28 28 28 27 26 26 26 25 25 25 25 25 24 23 22 22 22 22 21 21 20 20 20 22 23 23 22 22 22 22
45 44 41 34 31 29 31 33 35 35 33 29 28 29 30 30 29 27 27 28 28 29 29 28 28 27 27 27 28 28 27 26 25 23 22 22 22 20 19 18 18 19 20 22 24 25 25 25 26
46 45 39 34 32 32 34 36 36 37 35 30 28 30 31 30 29 28 28 28 29 30 32 32 31 30 30 30 30 31 30 28 27 25 23 23 23 21 19 18 18 19 20 22 24 26 28 29 30
46 44 39 35 35 36 37 38 37 37 35 32 29 30 32 31 30 28 27 27 28 30 31 32 32 32 32 32 33 33 32 31 29 28 26 24 24 23 21 19 19 21 22 22 23 24 27 29 30
46 44 40 38 38 38 37 37 37 37 35 32 30 31 33 31 30 28 27 27 28 29 29 31 31 32 32 33 34 35 34 33 32 30 28 27 26 25 24 23 21 22 23 24 24 24 24 25 27
47 45 43 41 41 39 37 35 35 36 36 35 33 32 34 34 31 30 29 28 29 29 29 30 30 30 31 32 33 34 35 35 34 32 31 29 28 27 27 26 24 24 24 25 25 25 25 26 27
49 48 46 43 41 40 38 36 36 36 37 38 37 34 34 35 34 32 31 30 31 32 32 31 31 30 30 31 32 33 34 35 35 33 32 31 30 29 29 28 27 26 26 26 26 26 27 28 29
50 49 47 44 42 42 42 39 37 37 40 41 39 36 35 35 35 33 32 32 33 34 34 33 31 31 30 29 30 30 31 33 33 33 33 31 30 30 31 30 29 29 28 28 28 29 29 30 31
50 50 49 45 45 45 44 39 37 40 41 42 41 39 36 36 36 35 33 33 35 37 36 34 33 32 31 30 30 29 29 30 31 32 32 31 31 31 32 31 31 31 31 31 31 31 32 32 33
49 49 48 46 46 46 44 40 39 41 41 42 42 41 38 37 37 37 35 34 37 38 38 36 35 34 32 32 32 30 29 28 29 31 31 31 31 32 33 33 33 33 34 34 34 34 33 33 34
47 47 47 46 46 45 44 42 39 40 42 42 42 42 41 39 39 39 38 37 38 39 40 38 37 36 35 35 35 33 30 29 29 29 30 32 33 33 33 34 34 34 35 35 35 35 34 34 36
45 46 45 44 45 45 44 43 40 40 42 43 43 43 43 41 41 41 41 40 40 41 41 41 40 39 38 38 37 36 34 33 32 31 31 32 33 33 33 33 34 34 34 34 34 35 35 35 36
41 41 41 42 44 44 43 42 40 40 41 42 43 44 43 43 43 43 43 43 43 43 43 44 43 43 41 40 40 40 41 39 36 34 32 32 33 33 33 33 32 33 33 33 34 35 35 36 36
36 37 37 38 39 40 41 40 37 37 38 40 41 42 43 43 43 44 45 45 45 45 46 46 47 47 46 45 44 44 44 42 39 37 34 35 36 36 35 33 32 32 33 33 34 34 35 36 36
32 32 31 31 33 35 37 37 30 32 34 35 36 39 41 42 43 43 44 45 47 47 48 49 50 50 50 50 48 46 45 44 43 42 41 40 40 39 37 35 34 34 33 33 34 34 35 35 36
26 25 24 26 27 29 28 34 28 27 29 32 34 37 40 42 43 44 46 47 49 50 52 52 52 53 53 54 52 50 48 47 47 47 46 45 43 42 40 38 36 36 36 35 35 35 35 36 36
21 21 21 21 22 23 21 29 28 26 29 33 37 39 42 45 47 49 50 52 53 54 56 57 58 58 58 58 57 55 52 50 49 49 48 48 47 46 44 41 40 39 38 37 36 36 36 37 38
20 19 18 18 19 20 22 25 27 30 32 35 38 41 44 47 49 51 53 55 56 56 57 59 60 61 62 63 63 61 58 54 51 50 50 50 49 48 46 44 42 41 40 39 38 37 38 38 39
18 17 16 17 19 20 23 26 26 30 33 36 39 41 44 47 49 52 55 57 58 59 60 60 61 62 63 65 66 66 64 59 54 52 51 51 49 48 47 46 44 42 41 40 40 39 40 40 41
15 14 14 17 19 22 23 25 25 28 32 36 39 42 45 48 50 53 55 56 58 59 60 61 61 62 63 64 66 67 67 63 58 55 53 52 50 49 48 46 44 43 41 41 41 41 41 42 43
11 11 14 17 21 23 22 21 24 28 31 35 38 42 45 48 51 53 55 56 57 57 57 58 59 60 61 63 65 66 66 64 60 57 54 52 50 49 47 45 44 43 42 42 42 42 42 43 44
10 12 15 18 20 22 21 18 23 27 31 34 38 43 47 49 52 53 53 53 52 52 52 53 54 56 58 61 64 65 64 63 60 57 54 52 50 49 46 44 43 42 41 41 41 42 43 45 45
10 13 15 16 17 18 19 17 23 27 31 35 40 44 47 49 51 50 49 47 46 45 45 46 47 49 52 56 61 63 62 62 59 56 54 52 50 47 45 42 41 40 40 40 41 43 44 45 45
Wind_Direction
226 229 231 231 230 228 227 230 232 230 228 227 228 231 235 240 243 249 254 257 261 262 262 262 264 267 267 265 265 266 264 261 260 261 262 263 265 268 271 272 273 271 269 269 268 265 263 265 268
229 232 234 235 235 232 230 233 235 235 232 231 231 233 236 237 240 245 248 254 258 260 261 263 266 267 268 268 268 269 269 268 267 267 266 264 265 266 267 268 269 267 264 264 264 264 263 264 267
232 234 236 237 237 234 232 236 238 238 236 235 234 236 240 240 240 243 245 250 253 255 257 261 264 264 265 267 268 268 270 271 271 270 269 267 265 265 266 266 266 264 261 260 260 261 262 264 267
235 236 237 237 234 230 232 237 240 240 237 237 237 239 244 245 243 243 244 244 247 251 254 257 259 260 263 266 268 268 270 271 271 271 272 270 268 267 266 265 266 264 261 259 259 258 260 262 265
237 236 236 233 225 224 231 238 240 240 238 237 237 239 243 244 243 243 244 245 247 250 252 254 255 257 260 264 268 269 271 274 274 275 276 276 274 271 268 267 266 265 263 261 259 258 259 261 264
237 236 233 227 216 218 227 236 239 238 234 233 236 238 241 244 243 242 243 245 247 249 252 255 256 257 260 265 269 272 275 278 281 282 281 280 278 273 269 267 268 268 266 263 261 261 262 263 264
233 233 229 220 212 214 221 234 240 240 237 233 234 239 242 243 245 244 244 246 249 252 254 256 258 259 261 266 271 275 278 280 283 286 285 282 278 273 269 268 269 269 268 265 262 261 261 261 260
228 228 225 217 213 213 221 234 242 245 243 240 239 241 243 246 247 245 244 246 249 253 255 255 257 259 262 266 270 274 277 279 281 282 284 282 278 273 271 270 270 270 268 265 262 259 257 256 256
224 225 223 218 216 215 223 231 240 245 246 244 246 248 247 246 247 246 244 244 246 249 252 253 255 258 262 265 268 272 276 278 279 279 280 279 277 274 273 273 274 274 272 269 265 260 256 255 255
222 224 223 219 219 219 224 232 239 246 250 251 250 252 253 251 249 245 244 243 243 245 248 251 254 257 260 263 266 269 273 276 277 277 278 278 276 273 271 275 279 279 278 275 271 265 261 259 258
222 225 224 223 224 225 227 233 239 246 250 251 251 252 253 253 252 249 246 246 246 246 249 251 253 255 258 261 263 266 268 271 274 275 276 277 277 275 273 275 279 281 282 280 278 275 270 267 266
224 227 228 228 231 231 231 234 240 246 251 252 250 251 253 252 251 251 249 247 248 250 251 252 253 255 258 260 262 265 267 268 270 272 274 274 275 276 275 276 279 283 284 282 281 280 279 277 276
226 228 230 231 234 237 237 239 242 246 250 251 248 246 251 253 251 249 247 246 248 249 251 252 253 254 257 259 262 265 266 268 269 271 272 272 273 275 276 278 281 283 283 282 282 282 283 284 285
227 230 231 234 237 241 243 242 242 243 247 248 249 248 250 254 255 251 248 247 247 249 250 250 250 252 254 258 262 264 265 266 266 267 268 269 271 273 275 277 279 281 282 283 284 284 285 286 287
230 233 234 236 238 240 242 240 240 241 244 247 248 249 251 254 256 253 250 247 247 249 250 251 251 251 252 255 259 262 264 265 265 265 266 268 269 270 272 275 277 280 282 283 283 284 286 288 290
231 234 236 237 239 240 242 241 241 241 242 246 249 249 250 253 256 254 250 246 246 248 250 251 251 252 252 254 256 258 260 262 263 263 263 265 266 268 269 272 275 278 280 281 282 284 286 288 290
232 235 237 238 239 240 242 242 239 242 243 245 249 251 251 252 254 254 251 246 244 246 248 249 250 250 251 253 255 256 258 260 262 262 262 262 263 264 267 270 273 276 278 280 281 284 286 288 291
234 236 237 239 240 242 243 244 242 244 246 247 249 251 252 252 252 252 251 247 244 244 246 248 249 250 250 252 255 257 258 258 258 258 258 259 261 264 267 270 273 275 278 280 281 282 284 288 291
234 235 238 240 241 243 244 245 245 246 247 248 250 250 251 253 252 251 250 248 245 244 245 248 250 250 250 251 254 257 257 255 254 254 255 258 261 264 267 270 273 275 277 279 280 281 284 288 290
235 236 239 242 243 244 245 246 248 249 250 251 252 251 251 251 252 252 252 251 249 246 246 247 248 250 250 251 252 253 253 254 253 253 254 258 260 262 265 269 273 276 277 278 279 281 284 287 290
233 235 237 241 245 248 248 247 249 252 253 254 254 254 253 253 253 253 253 253 252 250 249 248 248 249 250 250 250 250 251 254 256 256 256 256 257 260 264 268 272 275 276 277 279 281 284 288 290
233 235 238 241 244 249 251 250 247 253 255 256 255 255 255 256 256 256 256 256 255 255 254 252 250 249 250 250 250 250 252 254 256 256 255 255 257 260 264 267 269 272 274 276 279 281 284 287 290
231 233 235 238 243 248 252 256 247 250 253 256 257 257 258 258 259 259 259 259 258 258 257 257 255 253 252 251 251 251 251 251 253 255 257 257 259 261 263 266 269 271 273 275 277 280 283 286 288
218 222 226 231 239 245 248 257 258 259 257 258 259 261 261 261 261 261 261 261 260 260 259 258 257 255 254 252 251 251 251 251 252 254 256 257 258 260 262 266 268 270 272 274 276 279 282 285 287
202 209 219 228 237 246 251 256 266 272 271 269 267 266 266 265 264 263 263 262 261 260 258 257 256 255 253 252 251 250 250 250 250 251 253 255 257 259 261 264 267 270 272 273 275 278 282 284 286
195 210 227 240 246 253 260 265 274 281 280 278 276 274 272 271 270 269 268 267 265 262 259 257 254 252 251 250 249 249 248 248 248 249 251 253 255 257 259 263 266 269 270 272 275 278 282 284 286
206 225 244 260 267 272 274 278 284 285 284 282 281 280 279 278 277 275 274 271 269 266 263 259 255 252 249 247 246 245 245 245 246 247 248 250 252 254 257 260 264 266 268 270 275 278 281 284 286
226 247 266 278 284 285 283 293 295 289 287 287 288 288 287 285 283 281 278 275 272 268 264 260 256 253 249 245 242 241 241 241 241 243 245 247 250 252 255 258 262 264 266 270 274 278 281 284 286
247 265 277 283 286 289 292 304 292 292 294 297 298 297 295 292 289 286 282 277 273 268 263 259 255 252 248 243 238 235 235 236 236 238 241 244 247 250 253 257 260 262 266 270 274 278 281 284 285
264 274 279 283 287 291 300 307 300 302 305 305 304 302 299 296 292 288 283 277 272 266 260 256 253 250 247 241 235 231 228 228 230 233 236 241 245 249 252 255 259 262 266 270 274 278 282 284 285
Height
5822 5825 5829 5832 5836 5838 5840 5842 5842 5844 5847 5851 5853 5853 5853 5854 5857 5861 5861 5859 5861 5862 5862 5863 5863 5864 5863 5863 5863 5864 5864 5865 5865 5866 5866 5867 5867 5868 5868 5867 5867 5867 5866 5866 5866 5866 5866 5865 5865
5817 5820 5824 5827 5830 5834 5837 5836 5837 5840 5844 5847 5848 5848 5847 5850 5854 5856 5856 5856 5858 5859 5859 5860 5861 5861 5861 5860 5861 5861 5861 5862 5862 5862 5863 5863 5863 5864 5864 5864 5864 5863 5863 5863 5863 5863 5862 5862 5862
5811 5814 5818 5821 5825 5830 5831 5830 5832 5836 5840 5842 5844 5844 5842 5846 5851 5852 5853 5854 5855 5856 5856 5857 5858 5858 5858 5858 5858 5858 5859 5859 5859 5859 5859 5859 5859 5860 5860 5860 5860 5860 5860 5860 5859 5859 5859 5859 5859
5805 5809 5812 5817 5821 5824 5824 5825 5827 5830 5835 5838 5839 5839 5838 5843 5846 5848 5849 5850 5851 5852 5853 5854 5855 5855 5855 5855 5855 5856 5856 5856 5856 5856 5856 5856 5856 5856 5856 5856 5856 5856 5856 5856 5855 5855 5855 5855 5855
5799 5802 5806 5811 5816 5818 5819 5819 5821 5825 5829 5832 5834 5834 5834 5837 5841 5843 5844 5845 5847 5848 5849 5850 5850 5851 5851 5852 5852 5853 5853 5853 5853 5853 5853 5852 5852 5852 5852 5852 5852 5852 5852 5852 5852 5852 5851 5851 5851
5792 5796 5801 5807 5812 5814 5814 5814 5816 5819 5823 5826 5828 5828 5830 5832 5836 5839 5840 5841 5842 5843 5844 5845 5847 5847 5848 5849 5849 5849 5850 5850 5850 5850 5849 5849 5848 5848 5848 5848 5848 5848 5848 5848 5848 5848 5848 5848 5847
5786 5790 5795 5802 5806 5809 5811 5809 5811 5814 5818 5821 5822 5823 5825 5828 5831 5834 5836 5837 5838 5838 5840 5841 5842 5843 5844 5845 5845 5845 5846 5846 5846 5846 5845 5845 5845 5844 5844 5844 5844 5844 5844 5844 5844 5844 5844 5844 5844
5778 5784 5789 5796 5802 5805 5806 5805 5806 5809 5813 5816 5817 5819 5821 5824 5826 5828 5831 5832 5833 5834 5835 5837 5838 5839 5840 5840 5840 5841 5841 5842 5842 5842 5842 5841 5841 5840 5840 5840 5840 5840 5840 5840 5841 5840 5841 5840 5840
5771 5777 5783 5792 5797 5800 5800 5800 5801 5803 5807 5811 5814 5815 5817 5819 5821 5823 5825 5827 5828 5829 5830 5831 5833 5834 5835 5835 5836 5836 5836 5837 5838 5838 5838 5838 5837 5837 5837 5837 5837 5837 5837 5836 5837 5836 5836 5836 5836
5764 5770 5779 5787 5791 5793 5794 5795 5797 5799 5802 5807 5810 5811 5812 5814 5816 5818 5819 5821 5823 5824 5825 5826 5828 5829 5830 5831 5831 5831 5832 5833 5833 5833 5833 5833 5834 5834 5834 5834 5834 5834 5833 5832 5832 5832 5831 5831 5830
5758 5764 5773 5780 5783 5786 5788 5790 5792 5794 5797 5802 5804 5805 5806 5808 5810 5813 5815 5816 5818 5818 5820 5821 5822 5823 5824 5825 5825 5826 5827 5828 5828 5829 5829 5829 5830 5830 5831 5831 5831 5830 5829 5828 5828 5827 5826 5826 5825
5753 5759 5766 5772 5774 5778 5782 5785 5787 5789 5791 5795 5798 5798 5799 5801 5804 5806 5809 5811 5812 5813 5814 5815 5817 5818 5819 5819 5819 5820 5821 5822 5822 5823 5824 5825 5825 5826 5826 5827 5826 5826 5825 5824 5823 5822 5821 5821 5820
5746 5751 5757 5763 5767 5771 5775 5779 5782 5784 5785 5786 5789 5791 5792 5794 5797 5800 5802 5803 5805 5806 5808 5809 5810 5812 5812 5813 5813 5814 5815 5815 5816 5818 5819 5819 5820 5820 5820 5821 5821 5821 5820 5819 5818 5817 5816 5815 5814
5739 5743 5749 5756 5761 5764 5768 5772 5775 5778 5778 5779 5781 5784 5786 5787 5790 5793 5795 5797 5798 5798 5800 5801 5803 5805 5806 5807 5807 5808 5808 5809 5810 5811 5812 5814 5814 5815 5815 5815 5815 5815 5814 5813 5812 5811 5810 5809 5808
5732 5737 5742 5748 5753 5755 5757 5763 5768 5770 5770 5771 5773 5776 5779 5780 5782 5785 5788 5790 5791 5792 5793 5794 5796 5798 5799 5801 5801 5802 5802 5802 5803 5804 5806 5807 5808 5809 5809 5809 5809 5809 5808 5807 5806 5805 5804 5803 5801
5724 5729 5734 5741 5743 5746 5750 5756 5760 5760 5762 5764 5766 5769 5771 5774 5775 5778 5781 5783 5784 5785 5786 5787 5788 5790 5792 5793 5794 5795 5795 5796 5797 5798 5799 5801 5802 5802 5802 5803 5803 5802 5801 5800 5800 5798 5797 5796 5794
5717 5722 5726 5732 5735 5738 5742 5748 5752 5752 5755 5758 5759 5761 5763 5766 5767 5770 5773 5775 5777 5778 5779 5781 5782 5783 5784 5785 5786 5787 5788 5790 5790 5791 5793 5794 5795 5795 5795 5796 5795 5795 5794 5793 5792 5791 5790 5789 5787
5711 5715 5719 5723 5727 5731 5735 5739 5744 5745 5747 5750 5752 5753 5755 5757 5759 5761 5763 5765 5768 5770 5772 5773 5775 5776 5777 5777 5778 5780 5781 5783 5784 5785 5786 5786 5787 5787 5788 5788 5788 5787 5787 5786 5785 5784 5783 5781 5779
5703 5708 5712 5716 5719 5723 5727 5731 5735 5738 5739 5741 5743 5745 5747 5748 5749 5751 5753 5755 5758 5760 5763 5765 5766 5768 5769 5770 5771 5772 5773 5775 5776 5777 5778 5779 5779 5780 5780 5780 5780 5780 5779 5778 5777 5776 5775 5773 5771
5697 5701 5706 5709 5712 5716 5720 5724 5727 5729 5731 5732 5734 5736 5738 5739 5740 5741 5743 5745 5747 5750 5752 5755 5756 5758 5760 5762 5763 5763 5764 5765 5768 5770 5771 5772 5772 5772 5773 5773 5773 5772 5771 5770 5769 5768 5767 5765 5763
5690 5695 5699 5703 5705 5709 5712 5718 5721 5722 5722 5724 5725 5726 5728 5730 5731 5732 5733 5735 5737 5740 5742 5743 5745 5747 5749 5751 5753 5754 5754 5756 5759 5762 5764 5764 5763 5764 5765 5765 5765 5765 5764 5763 5762 5760 5759 5757 5755
5686 5690 5694 5697 5700 5703 5706 5709 5716 5714 5715 5716 5717 5718 5719 5720 5721 5722 5723 5725 5727 5728 5729 5731 5734 5736 5738 5740 5742 5744 5746 5748 5751 5753 5754 5754 5755 5755 5756 5757 5757 5757 5756 5755 5754 5753 5751 5750 5747
5682 5686 5689 5692 5694 5697 5700 5701 5709 5709 5709 5708 5709 5710 5710 5711 5712 5712 5713 5714 5715 5716 5717 5718 5720 5723 5726 5728 5731 5734 5736 5739 5741 5742 5743 5745 5746 5747 5747 5748 5748 5748 5748 5747 5746 5745 5744 5742 5740
5679 5682 5685 5687 5689 5694 5696 5696 5700 5701 5701 5700 5701 5701 5700 5701 5701 5701 5701 5702 5702 5702 5703 5704 5705 5708 5711 5714 5718 5721 5724 5727 5729 5731 5733 5734 5735 5737 5738 5739 5739 5739 5739 5739 5738 5737 5736 5734 5731
5676 5679 5682 5684 5686 5689 5691 5691 5693 5691 5690 5691 5691 5690 5689 5688 5688 5687 5687 5687 5686 5686 5686 5687 5688 5691 5694 5698 5702 5706 5711 5715 5718 5720 5722 5724 5725 5727 5728 5729 5730 5730 5730 5730 5729 5728 5727 5725 5722
5673 5676 5679 5681 5683 5684 5685 5685 5688 5683 5681 5679 5679 5678 5676 5674 5673 5671 5670 5669 5668 5667 5667 5668 5669 5672 5675 5679 5685 5690 5695 5701 5705 5708 5710 5713 5715 5717 5718 5719 5720 5720 5720 5720 5720 5719 5717 5715 5713
5671 5673 5676 5677 5677 5678 5679 5679 5679 5674 5672 5669 5667 5664 5661 5659 5656 5653 5651 5648 5647 5645 5645 5646 5648 5651 5655 5659 5665 5672 5679 5685 5691 5695 5698 5701 5704 5706 5708 5710 5711 5711 5711 5711 5710 5709 5708 5706 5703
5669 5671 5672 5672 5671 5671 5672 5672 5669 5665 5662 5659 5655 5651 5647 5642 5638 5634 5630 5627 5625 5624 5623 5623 5625 5629 5633 5638 5645 5653 5662 5669 5675 5681 5686 5690 5693 5696 5698 5700 5701 5701 5701 5701 5701 5699 5698 5695 5692
5666 5668 5667 5667 5666 5665 5664 5667 5661 5657 5653 5649 5644 5637 5631 5625 5619 5614 5609 5606 5603 5602 5602 5602 5604 5607 5612 5618 5625 5635 5645 5653 5660 5667 5673 5679 5683 5686 5689 5691 5692 5692 5692 5692 5691 5689 5687 5685 5681
5662 5662 5662 5663 5662 5659 5657 5661 5654 5649 5644 5638 5633 5625 5617 5610 5602 5595 5590 5587 5584 5583 5583 5584 5586 5589 5594 5599 5606 5616 5627 5637 5646 5655 5662 5668 5672 5676 5679 5681 5683 5683 5683 5683 5681 5680 5677 5674 5670